Regional Weather Roundup
Issued by NWS

Home | Current Version | Previous Version | Graphics & Text | Print | Product List | Glossary Off
Versions: 1 2 3 4 5 6 7 8 9 10 11 12 13 14 15 16 17 18 19 20 21 22 23 24 25 26 27 28 29 30 31 32 33 34 35 36 37 38 39 40 41 42 43 44 45 46 47 48 49 50

000
ASUS43 KLSX 311007
RWRMO

WEATHER SUMMARY FOR MISSOURI
NATIONAL WEATHER SERVICE SPRINGFIELD MO
500 AM CDT FRI OCT 31 2014

NOTE: "FAIR" INDICATES FEW OR NO CLOUDS BELOW 12,000 FEET WITH NO
       SIGNIFICANT WEATHER AND/OR OBSTRUCTIONS TO VISIBILITY.
       CURRENT SKY AND/OR WEATHER CONDITIONS ARE NOT AVAILABLE FOR
       CHILLICOTHE AND FARMINGTON.

MOZ001>031-035>038-043-044-053-054-311100-
...NORTHERN AND WESTERN MISSOURI...

CITY           SKY/WX    TMP DP  RH WIND       PRES   REMARKS
KANSAS CTY INT CLOUDY    41  32  70 N23G30    30.35R
KANSAS C DTWN  CLOUDY    45  32  60 N16G29    30.34R
LEE`S SUMMIT   CLOUDY    45  35  68 N23G30    30.32R
ST JOSEPH      MOCLDY    37  26  64 N23G33    30.41R WCI  26
CHILLICOTHE      N/A     43  30  60 N15G26    30.34R
KIRKSVILLE     MOCLDY    41  30  65 N20G29    30.28R

$$
MOZ066>068-077>081-088>096-101>105-311100-
...SOUTHWEST MISSOURI...

CITY           SKY/WX    TMP DP  RH WIND       PRES   REMARKS
SPRINGFIELD    PTCLDY    47  39  74 N18       30.17R
JOPLIN         CLEAR     46  40  79 N13       30.24R

$$
MOZ032>034-039>042-045>050-055>058-069>072-311100-
...CENTRAL MISSOURI...

CITY           SKY/WX    TMP DP  RH WIND       PRES   REMARKS
COLUMBIA       CLOUDY    48  40  73 N15       30.19R
JEFFERSON CITY CLOUDY    50  42  74 N13       30.19R
ROLLA          CLOUDY    44  42  93 N13       30.13R
SEDALIA        LGT RAIN  49  39  68 N22G30    30.24R
WHITEMAN AFB   CLOUDY    48  37  66 N25       30.24R
OSAGE BEACH    CLOUDY    48  39  71 N8G20     30.18R

$$
MOZ051-052-059>065-311100-
...EAST CENTRAL MISSOURI...

CITY           SKY/WX    TMP DP  RH WIND       PRES   REMARKS
ST LOUIS INTL  CLOUDY    47  43  86 NW8       30.12R
SPIRIT OF STL  CLOUDY    47  43  86 N6        30.12R
ST CHARLES     CLOUDY    47  43  86 NW7       30.12R

$$
MOZ072>076-082>087-097>100-106>115-311100-
...SOUTH CENTRAL AND SOUTHEAST MISSOURI...

CITY           SKY/WX    TMP DP  RH WIND       PRES   REMARKS
CAPE GIRARDEAU MOCLDY    50  46  86 NW6       30.03S
FARMINGTON     PTCLDY    45  43  93 W10       30.09R
POPLAR BLUFF   CLEAR     47  44  90 N5        30.04R
WEST PLAINS    CLEAR     48  42  80 N12G20    30.10R

$$



USA.gov is the U.S. government's official web portal to all federal, state and local government web resources and services.